Home   Weather   Edmonton   Past weeks
Flag for Canada

Past Weather in Edmonton, Alberta, Canada — Yesterday and Last 2 Weeks

Now
5 °F

Frigid.


Feels Like: -8 °F
Forecast: 17 / -3 °F
Wind: 8 mph from South

Location: Edmonton Municipal

Current Time: Apr 2, 2020 at 11:26:54 pm

Latest Report: Apr 2, 2020 at 10:00 pm


Visibility: N/A

Pressure: 30.37 "Hg (27.72 "Hg at 692m altitude)

Humidity: 64%

Dew Point: -4 °F

Location of EdmontonLocation

Past Weather in Edmonton — Graph

°F

Edmonton Temperature Yesterday

Maximum temperature yesterday: 11 °F (at 5:00 pm)
Minimum temperature yesterday: -2 °F (at 4:00 am)
Average temperature yesterday: 6 °F

High & Low Weather Summary for the Past Weeks

 TemperatureHumidityPressure
High49 °F (Mar 27, 5:00 pm)93% (Mar 23, 7:00 pm)30.62 "Hg (Mar 23, 7:00 pm)
Low-4 °F (Apr 2, 5:00 am)35% (Mar 21, 5:00 pm)29.45 "Hg (Mar 26, 4:00 pm)
Average21 °F69%30.04 "Hg
* Reported Mar 18 10:00 pm — Apr 2 10:00 pm, Edmonton. Weather by CustomWeather, © 2020

Note: Actual official high and low records may vary slightly from our data, if they occured in-between our weather recording intervals... More about our weather records

Edmonton Weather History for the Previous 24 Hours

Scroll right to see more
 ConditionsComfort  
Time TempWeatherWind HumidityBarometerVisibility
10:00 pm
Thu, Apr 2
5 °FFrigid.8 mph64%30.37 "HgN/A
9:00 pm10 °FFrigid.8 mph56%30.37 "HgN/A
8:00 pm10 °FCold.8 mph55%30.38 "HgN/A
7:00 pm16 °FCold.5 mph42%30.37 "HgN/A
5:00 pm15 °FCold.6 mph47%30.40 "HgN/A
4:00 pm17 °FCold.6 mph46%30.40 "HgN/A
3:00 pm15 °FCold.5 mph45%30.42 "HgN/A
2:00 pm13 °FCold.6 mph45%30.43 "HgN/A
1:00 pm11 °FCold.6 mph50%30.45 "HgN/A
12:00 pm9 °FFrigid.7 mph54%30.46 "HgN/A
11:00 am7 °FFrigid.7 mph61%30.47 "HgN/A
10:00 am5 °FFrigid.7 mph71%30.47 "HgN/A
9:00 am2 °FFrigid.7 mph80%30.48 "HgN/A
8:00 am-1 °FFrigid.5 mph82%30.48 "HgN/A
7:00 am-3 °FFrigid.5 mph83%30.47 "HgN/A
6:00 am-3 °FFrigid.2 mph84%30.47 "HgN/A
5:00 am-4 °FFrigid.1 mph82%30.47 "HgN/A
4:00 am0 °FFrigid.2 mph85%30.47 "HgN/A
3:00 am-1 °FFrigid.2 mph84%30.47 "HgN/A
2:00 am0 °FFrigid.2 mph82%30.47 "HgN/A
1:00 am1 °FFrigid.3 mph83%30.47 "HgN/A
12:00 am4 °FFrigid.6 mph87%30.47 "HgN/A
11:00 pm
Wed, Apr 1
6 °FFrigid.6 mph78%30.46 "HgN/A
Weather by CustomWeather, © 2020

See weather overview

Advertising